Date String (YYYY-MM-DD hh:mm:ss) UTC,Instrument flags,absolute air pressure of the measurement (hPa),sample flow rate (lpm),inlet stack bypass flow (lpm),air temperature of the measurement (°C),ambient temperature measured by the external sensor (°C),aerosol sample conditioner tube jacket temperature (°C),OPC LED temperature (°C),internal box temperature (°C),relative humidity of the measurement (%),span deviation,mass concentration of particles derived from Lorenz-Mie calculation of OPC scattering (μg/m³),mass concentration of particles derived from Lorenz-Mie calculation of OPC scattering (μg/m³),mass concentration of particles derived from Lorenz-Mie calculation of OPC scattering (μg/m³)
DateTimeUTC,F1_M11,P_M11,Q1_M11,Q2_M11,T1_M11,T2_M11,T3_M11,T4_M11,T5_M11,U1_M11,ZSPAN_M11,X0_M11,X2_M11,X1_M11
2023-10-20 20:00:00,SystemResetWarning,0830.5,5.00,000.00,028.0,025.5,000.0,036.4,029.7,12.1,0000.0,0024.33,0004.75,0001.81
2023-10-20 20:01:00,SystemResetWarning,0830.4,5.00,000.00,028.1,025.9,000.0,036.4,029.8,12.1,0000.0,0025.14,0004.75,0001.81
2023-10-20 20:02:00,SystemResetWarning,0830.4,5.00,000.00,028.1,026.3,000.0,036.4,029.8,11.8,0000.0,0024.39,0004.77,0001.83
2023-10-20 20:03:00,SystemResetWarning,0830.4,5.00,000.00,028.1,026.7,000.0,036.5,029.9,11.7,0000.0,0025.13,0004.81,0001.84
2023-10-20 20:04:00,SystemResetWarning,0830.3,5.00,000.00,028.2,027.0,000.0,036.5,030.1,12.0,0000.0,0026.18,0004.75,0001.84
2023-10-20 20:05:00,SystemResetWarning,0830.3,4.98,000.00,028.2,026.1,000.0,036.5,030.0,11.9,0000.0,0025.86,0004.67,0001.81
2023-10-20 20:06:00,SystemResetWarning,0830.3,5.01,000.00,028.2,024.5,000.0,036.4,029.8,12.0,0000.0,0026.59,0004.62,0001.79
2023-10-20 20:07:00,SystemResetWarning,0830.3,5.02,000.00,028.1,024.4,000.0,036.4,029.7,12.0,0000.0,0027.48,0004.60,0001.78
2023-10-20 20:08:00,SystemResetWarning,0830.2,5.00,000.00,028.0,024.8,000.0,036.4,029.6,12.0,0000.0,0028.03,0004.60,0001.78
2023-10-20 20:09:00,SystemResetWarning,0830.3,5.00,000.00,028.0,025.2,000.0,036.4,029.6,11.9,0000.0,0027.97,0004.67,0001.78
2023-10-20 20:10:00,SystemResetWarning,0830.2,5.00,000.00,028.0,025.7,000.0,036.4,029.7,11.8,0000.0,0027.77,0004.72,0001.78
2023-10-20 20:11:00,SystemResetWarning,0830.2,5.01,000.00,028.1,026.1,000.0,036.4,029.8,11.5,0000.0,0027.29,0004.83,0001.78
2023-10-20 20:12:00,SystemResetWarning,0830.2,5.00,000.00,028.1,026.5,000.0,036.4,029.9,11.6,0000.0,0028.13,0004.82,0001.76
2023-10-20 20:13:00,SystemResetWarning,0830.2,5.00,000.00,028.1,026.8,000.0,036.5,030.0,11.6,0000.0,0028.46,0004.81,0001.74
2023-10-20 20:14:00,SystemResetWarning,0830.2,4.99,000.00,028.2,027.1,000.0,036.5,030.1,11.2,0000.0,0028.82,0004.70,0001.72
2023-10-20 20:15:00,SystemResetWarning,0830.3,4.99,000.00,028.2,026.5,000.0,036.5,030.1,11.1,0000.0,0028.79,0004.70,0001.72
2023-10-20 20:16:00,SystemResetWarning,0830.2,5.00,000.00,028.2,024.8,000.0,036.4,029.8,11.0,0000.0,0028.43,0004.72,0001.72
2023-10-20 20:17:00,SystemResetWarning,0830.1,5.00,000.00,028.1,024.5,000.0,036.4,029.7,11.0,0000.0,0027.24,0004.72,0001.72
2023-10-20 20:18:00,SystemResetWarning,0830.1,5.01,000.00,028.0,024.8,000.0,036.3,029.6,11.0,0000.0,0026.72,0004.70,0001.70
2023-10-20 20:19:00,SystemResetWarning,0830.1,5.01,000.00,028.0,025.2,000.0,036.4,029.6,10.8,0000.0,0026.91,0004.61,0001.69
2023-10-20 20:20:00,SystemResetWarning,0830.1,4.99,000.00,028.0,025.7,000.0,036.4,029.7,11.1,0000.0,0026.92,0004.49,0001.67
2023-10-20 20:21:00,SystemResetWarning,0830.1,5.00,000.00,028.0,026.1,000.0,036.4,029.8,10.8,0000.0,0027.14,0004.41,0001.66
2023-10-20 20:22:00,SystemResetWarning,0830.1,5.01,000.00,028.1,026.5,000.0,036.4,029.8,10.4,0000.0,0026.33,0004.30,0001.64
2023-10-20 20:23:00,SystemResetWarning,0830.1,4.98,000.00,028.1,026.8,000.0,036.5,030.0,10.3,0000.0,0025.73,0004.31,0001.65
2023-10-20 20:24:00,SystemResetWarning,0830.1,4.99,000.00,028.2,027.0,000.0,036.5,030.0,10.4,0000.0,0027.10,0004.31,0001.65
2023-10-20 20:25:00,SystemResetWarning,0830.0,4.99,000.00,028.2,025.7,000.0,036.4,030.0,10.6,0000.0,0026.73,0004.28,0001.64
2023-10-20 20:26:00,SystemResetWarning,0830.0,5.01,000.00,028.1,024.4,000.0,036.4,029.8,10.4,0000.0,0024.94,0004.20,0001.64
2023-10-20 20:27:00,SystemResetWarning,0830.0,5.02,000.00,028.1,024.5,000.0,036.3,029.7,10.4,0000.0,0024.59,0004.21,0001.66
2023-10-20 20:28:00,SystemResetWarning,0830.1,5.00,000.00,028.0,024.9,000.0,036.3,029.6,10.4,0000.0,0025.40,0004.26,0001.67
2023-10-20 20:29:00,SystemResetWarning,0830.1,5.00,000.00,028.0,025.3,000.0,036.3,029.6,10.3,0000.0,0025.68,0004.28,0001.69
2023-10-20 20:30:00,SystemResetWarning,0830.0,5.00,000.00,028.0,025.8,000.0,036.4,029.7,10.1,0000.0,0024.93,0004.39,0001.73
2023-10-20 20:31:00,SystemResetWarning,0830.0,5.00,000.00,028.0,026.3,000.0,036.4,029.8,10.1,0000.0,0024.17,0004.42,0001.76
2023-10-20 20:32:00,SystemResetWarning,0830.0,5.00,000.00,028.1,026.6,000.0,036.4,029.9,9.9,0000.0,0024.02,0004.49,0001.78
2023-10-20 20:33:00,SystemResetWarning,0830.0,4.99,000.00,028.1,026.9,000.0,036.4,030.0,9.7,0000.0,0024.34,0004.55,0001.80
2023-10-20 20:34:00,SystemResetWarning,0830.0,5.00,000.00,028.2,026.6,000.0,036.4,030.0,9.7,0000.0,0024.97,0004.54,0001.81
2023-10-20 20:35:00,SystemResetWarning,0830.0,5.00,000.00,028.2,025.0,000.0,036.4,029.9,9.6,0000.0,0022.92,0004.57,0001.82
2023-10-20 20:36:00,SystemResetWarning,0830.0,5.00,000.00,028.1,024.4,000.0,036.3,029.8,9.5,0000.0,0023.42,0004.61,0001.84
2023-10-20 20:37:00,SystemResetWarning,0830.0,5.01,000.00,028.0,024.7,000.0,036.3,029.7,9.5,0000.0,0023.79,0004.70,0001.87
2023-10-20 20:38:00,SystemResetWarning,0830.0,5.00,000.00,028.0,025.1,000.0,036.3,029.6,9.6,0000.0,0024.39,0004.70,0001.85
2023-10-20 20:39:00,SystemResetWarning,0830.0,5.00,000.00,028.0,025.5,000.0,036.3,029.7,9.5,0000.0,0024.82,0004.64,0001.86
2023-10-20 20:40:00,SystemResetWarning,0830.0,5.00,000.00,028.0,026.0,000.0,036.4,029.8,9.5,0000.0,0025.54,0004.59,0001.85
2023-10-20 20:41:00,SystemResetWarning,0830.0,5.00,000.00,028.1,026.4,000.0,036.4,029.9,9.5,0000.0,0025.62,0004.57,0001.84
2023-10-20 20:42:00,SystemResetWarning,0830.0,5.00,000.00,028.1,026.8,000.0,036.4,030.0,9.6,0000.0,0025.40,0004.54,0001.82
2023-10-20 20:43:00,SystemResetWarning,0830.0,4.99,000.00,028.2,027.1,000.0,036.4,030.1,9.6,0000.0,0024.44,0004.49,0001.80
2023-10-20 20:44:00,SystemResetWarning,0830.0,4.98,000.00,028.2,026.1,000.0,036.4,030.0,9.4,0000.0,0024.82,0004.49,0001.82
2023-10-20 20:45:00,SystemResetWarning,0830.0,5.01,000.00,028.1,024.6,000.0,036.4,029.8,9.4,0000.0,0025.12,0004.52,0001.82
2023-10-20 20:46:00,SystemResetWarning,0830.0,5.01,000.00,028.1,024.5,000.0,036.3,029.7,9.4,0000.0,0025.58,0004.47,0001.82
2023-10-20 20:47:00,SystemResetWarning,0829.9,5.00,000.00,028.0,024.8,000.0,036.3,029.6,9.5,0000.0,0026.03,0004.44,0001.80
2023-10-20 20:48:00,SystemResetWarning,0829.9,5.00,000.00,028.0,025.3,000.0,036.3,029.6,9.4,0000.0,0025.23,0004.36,0001.77
2023-10-20 20:49:00,SystemResetWarning,0829.9,5.00,000.00,028.0,025.7,000.0,036.4,029.7,9.3,0000.0,0024.14,0004.37,0001.77
2023-10-20 20:50:00,SystemResetWarning,0830.0,5.00,000.00,028.0,026.1,000.0,036.4,029.8,9.3,0000.0,0023.11,0004.38,0001.75
2023-10-20 20:51:00,SystemResetWarning,0830.0,5.00,000.00,028.1,026.5,000.0,036.4,029.9,9.3,0000.0,0022.43,0004.36,0001.74
2023-10-20 20:52:00,SystemResetWarning,0830.0,5.00,000.00,028.1,026.8,000.0,036.4,030.0,9.1,0000.0,0021.60,0004.32,0001.73
2023-10-20 20:53:00,SystemResetWarning,0830.0,4.99,000.00,028.2,026.0,000.0,036.4,029.9,9.1,0000.0,0021.98,0004.25,0001.71
2023-10-20 20:54:00,SystemResetWarning,0829.9,5.00,000.00,028.1,024.5,000.0,036.3,029.7,9.2,0000.0,0021.86,0004.20,0001.68
2023-10-20 20:55:00,SystemResetWarning,0830.0,5.01,000.00,028.0,024.4,000.0,036.3,029.6,9.3,0000.0,0022.05,0004.16,0001.66
2023-10-20 20:56:00,SystemResetWarning,0829.9,5.00,000.00,028.0,024.7,000.0,036.3,029.5,9.4,0000.0,0020.76,0004.04,0001.62
2023-10-20 20:57:00,SystemResetWarning,0830.0,5.00,000.00,027.9,025.2,000.0,036.3,029.5,9.5,0000.0,0019.49,0004.07,0001.60
2023-10-20 20:58:00,SystemResetWarning,0830.0,4.99,000.00,027.9,025.6,000.0,036.3,029.6,9.6,0000.0,0019.53,0004.06,0001.59
2023-10-20 20:59:00,SystemResetWarning,0830.0,4.99,000.00,028.0,026.1,000.0,036.3,029.7,9.3,0000.0,0019.67,0004.02,0001.57
